Погода в Измайлово

Россия / Орловская область     53˚02′14″N   36˚53′05″E
темп.,
°C
ветер,
м/с
пор.,
м/с
влажн.,
%
обл.,
%
осадки,
мм/ч
давл.,
гПа
погр.,
м
17 января, вс
вс1700:00−16˚зсз51094100 0.2 1011426
03:00−16˚зсз4995100 0.4 1012356
06:00−16˚з4796100 0.1 1012239
09:00−16˚зсз3696100 0.5 1013281
12:00−14˚ссз2394100 0.7 1015342
15:00−15˚с2394100 1.0 1015324
18:00−16˚с2397100 0.4 1017111
21:00−21˚ссв339789 0.4 101828
18 января, пн
пн1800:00−23˚всв229741 0.0 101920
03:00−23˚ссв229668 0.0 101921
06:00−22˚св1295100 0.0 101922
09:00−22˚св1295100 0.0 102024
12:00−20˚вюв1292100 0.0 1020229
15:00−19˚ссв1191100 0.0 1019203
18:00−20˚с1196100 0.0 101920
21:00−20˚с1198100 0.2 101920
19 января, вт
вт1900:00−19˚сз1198100 0.1 101923
03:00−20˚сз2298100 0.3 101959
06:00−19˚сз2298100 0.3 1018128
09:00−19˚зсз2298100 0.6 1019116
12:00−17˚зсз2394100 0.2 1018233
15:00−16˚зсз3495100 0.4 1017262
18:00−17˚зсз3496100 0.1 1018105
21:00−17˚зсз3397100 0.1 101872
20 января, ср
ср2000:00−19˚зсз339899 0.0 101957
03:00−20˚зсз349998 0.1 102054
06:00−20˚зсз349998 0.0 102158
09:00−21˚зсз239997 0.1 102229
12:00−17˚зсз239662 0.0 1023129
15:00−16˚з249542 0.0 1023119
18:00−19˚з33970 0.0 102526
21:00−19˚зюз23970 0.0 102520
21 января, чт
чт2100:00−19˚юз34970 0.0 102540
03:00−18˚ююз349133 0.0 102571
06:00−18˚ююз489096 0.0 1024136
09:00−15˚ю5109098 0.0 1022236
12:00−10˚ююз71294100 0.3 1021417
15:00−7˚юз71294100 1.3 1018577
18:00−6˚юз61395100 1.0 1017552
21:00−5˚юз5119598 1.6 1017412